Time,TemperatureF,DewpointF,PressureIn,WindDirection,WindDirectionDegrees,WindSpeedMPH,WindSpeedGustMPH,Humidity,HourlyPrecipIn,Conditions,Clouds,dailyrainin,SoftwareType,DateUTC
2013-05-11 00:02:00,54.7,44.0,29.89,WSW,238,5.0,17.0,67,0.00,,,0.00,Wunderground v.1.15,2013-05-11 05:02:00,
2013-05-11 00:04:00,54.7,44.0,29.89,WSW,238,5.0,17.0,67,0.00,,,0.00,Wunderground v.1.15,2013-05-11 05:04:00,
2013-05-11 00:05:00,54.7,44.0,29.89,WSW,240,5.0,17.0,67,0.00,,,0.00,Wunderground v.1.15,2013-05-11 05:05:00,
2013-05-11 00:10:00,54.7,44.3,29.90,WNW,294,5.0,5.0,68,0.00,,,0.00,Wunderground v.1.15,2013-05-11 05:10:00,
2013-05-11 00:12:00,54.6,44.6,29.91,NW,316,5.0,6.0,69,0.00,,,0.00,Wunderground v.1.15,2013-05-11 05:12:00,
2013-05-11 00:16:00,54.1,45.3,29.92,NNW,330,6.0,7.0,72,0.00,,,0.00,Wunderground v.1.15,2013-05-11 05:16:00,
2013-05-11 00:20:00,54.2,45.4,29.92,NW,316,8.0,11.0,72,0.00,,,0.00,Wunderground v.1.15,2013-05-11 05:20:00,
2013-05-11 00:22:00,54.3,45.1,29.92,NW,312,8.0,12.0,71,0.00,,,0.00,Wunderground v.1.15,2013-05-11 05:22:00,
2013-05-11 00:24:00,54.5,45.3,29.92,NW,321,9.0,12.0,71,0.00,,,0.00,Wunderground v.1.15,2013-05-11 05:24:00,
2013-05-11 00:26:00,54.6,45.0,29.92,NW,325,10.0,12.0,70,0.00,,,0.00,Wunderground v.1.15,2013-05-11 05:26:00,
2013-05-11 00:28:00,54.7,45.1,29.92,NW,313,10.0,12.0,70,0.00,,,0.00,Wunderground v.1.15,2013-05-11 05:28:00,
2013-05-11 00:32:00,54.8,44.8,29.92,NNW,347,9.0,11.0,69,0.00,,,0.00,Wunderground v.1.15,2013-05-11 05:32:00,
2013-05-11 00:34:00,54.9,44.5,29.92,NW,317,10.0,11.0,68,0.00,,,0.00,Wunderground v.1.15,2013-05-11 05:34:00,
2013-05-11 00:38:00,54.9,44.1,29.92,NW,321,10.0,13.0,67,0.00,,,0.00,Wunderground v.1.15,2013-05-11 05:38:00,
2013-05-11 00:40:00,54.9,44.1,29.92,NNW,335,10.0,14.0,67,0.00,,,0.00,Wunderground v.1.15,2013-05-11 05:40:00,
2013-05-11 00:42:00,54.9,43.7,29.92,NW,323,11.0,14.0,66,0.00,,,0.00,Wunderground v.1.15,2013-05-11 05:42:00,
2013-05-11 00:44:00,54.9,43.7,29.92,North,349,12.0,14.0,66,0.00,,,0.00,Wunderground v.1.15,2013-05-11 05:44:00,
2013-05-11 00:46:00,54.8,43.7,29.92,NNW,343,12.0,14.0,66,0.00,,,0.00,Wunderground v.1.15,2013-05-11 05:46:00,
2013-05-11 00:50:00,54.5,43.4,29.92,NW,322,12.0,12.0,66,0.00,,,0.00,Wunderground v.1.15,2013-05-11 05:50:00,
2013-05-11 00:52:00,54.5,43.4,29.92,North,360,12.0,14.0,66,0.00,,,0.00,Wunderground v.1.15,2013-05-11 05:52:00,
2013-05-11 00:56:00,54.3,42.8,29.92,NNW,328,12.0,19.0,65,0.00,,,0.00,Wunderground v.1.15,2013-05-11 05:56:00,
2013-05-11 00:58:00,54.2,42.7,29.92,NNW,338,13.0,19.0,65,0.00,,,0.00,Wunderground v.1.15,2013-05-11 05:58:00,
2013-05-11 01:00:00,54.2,42.7,29.92,NNW,344,13.0,13.0,65,0.00,,,0.00,Wunderground v.1.15,2013-05-11 06:00:00,
2013-05-11 01:04:00,54.1,43.0,29.92,North,357,13.0,14.0,66,0.00,,,0.00,Wunderground v.1.15,2013-05-11 06:04:00,
2013-05-11 01:06:00,54.0,42.9,29.93,NNW,335,13.0,14.0,66,0.00,,,0.00,Wunderground v.1.15,2013-05-11 06:06:00,
2013-05-11 01:08:00,53.9,42.8,29.93,NNW,337,12.0,14.0,66,0.00,,,0.00,Wunderground v.1.15,2013-05-11 06:08:00,
2013-05-11 01:12:00,53.8,42.3,29.93,North,349,13.0,16.0,65,0.00,,,0.00,Wunderground v.1.15,2013-05-11 06:12:00,
2013-05-11 01:14:00,53.8,42.7,29.93,NW,317,13.0,16.0,66,0.00,,,0.00,Wunderground v.1.15,2013-05-11 06:14:00,
2013-05-11 01:16:00,53.6,42.5,29.93,NNW,344,13.0,16.0,66,0.00,,,0.00,Wunderground v.1.15,2013-05-11 06:16:00,
2013-05-11 01:18:00,53.5,42.0,29.93,NNW,345,14.0,16.0,65,0.00,,,0.00,Wunderground v.1.15,2013-05-11 06:18:00,
2013-05-11 01:20:00,53.3,42.2,29.93,NNW,338,14.0,14.0,66,0.00,,,0.00,Wunderground v.1.15,2013-05-11 06:20:00,
2013-05-11 01:22:00,53.1,42.0,29.93,NNW,335,14.0,18.0,66,0.00,,,0.00,Wunderground v.1.15,2013-05-11 06:22:00,
2013-05-11 01:24:00,52.9,41.4,29.93,NW,326,15.0,18.0,65,0.00,,,0.00,Wunderground v.1.15,2013-05-11 06:24:00,
2013-05-11 01:26:00,52.7,41.3,29.93,North,352,15.0,18.0,65,0.00,,,0.00,Wunderground v.1.15,2013-05-11 06:26:00,
2013-05-11 01:32:00,52.2,40.4,29.93,North,350,16.0,16.0,64,0.00,,,0.00,Wunderground v.1.15,2013-05-11 06:32:00,
2013-05-11 01:34:00,52.1,40.3,29.93,NW,320,15.0,22.0,64,0.00,,,0.00,Wunderground v.1.15,2013-05-11 06:34:00,
2013-05-11 01:35:00,52.0,40.6,29.93,NNW,337,15.0,22.0,65,0.00,,,0.00,Wunderground v.1.15,2013-05-11 06:35:00,
2013-05-11 01:40:00,52.0,39.4,29.94,NNW,335,16.0,16.0,62,0.00,,,0.00,Wunderground v.1.15,2013-05-11 06:40:00,
2013-05-11 01:42:00,51.9,39.7,29.93,North,356,16.0,16.0,63,0.00,,,0.00,Wunderground v.1.15,2013-05-11 06:42:00,
2013-05-11 01:46:00,51.6,38.2,29.93,NNW,336,17.0,21.0,60,0.00,,,0.00,Wunderground v.1.15,2013-05-11 06:46:00,
2013-05-11 01:48:00,51.5,38.1,29.94,NNW,338,16.0,21.0,60,0.00,,,0.00,Wunderground v.1.15,2013-05-11 06:48:00,
2013-05-11 01:50:00,51.3,37.4,29.94,North,9,16.0,18.0,59,0.00,,,0.00,Wunderground v.1.15,2013-05-11 06:50:00,
2013-05-11 01:54:00,51.0,37.6,29.94,NNW,333,15.0,18.0,60,0.00,,,0.00,Wunderground v.1.15,2013-05-11 06:54:00,
2013-05-11 01:56:00,51.0,37.6,29.94,North,356,15.0,18.0,60,0.00,,,0.00,Wunderground v.1.15,2013-05-11 06:56:00,
2013-05-11 01:59:00,50.8,37.8,29.94,NNE,13,16.0,21.0,61,0.00,,,0.00,Wunderground v.1.15,2013-05-11 06:59:00,
2013-05-11 02:02:00,50.6,37.6,29.94,NW,322,17.0,21.0,61,0.00,,,0.00,Wunderground v.1.15,2013-05-11 07:02:00,
2013-05-11 02:06:00,50.3,36.5,29.94,NNW,342,18.0,21.0,59,0.00,,,0.00,Wunderground v.1.15,2013-05-11 07:06:00,
2013-05-11 02:08:00,50.2,36.4,29.94,North,1,18.0,21.0,59,0.00,,,0.00,Wunderground v.1.15,2013-05-11 07:08:00,
2013-05-11 02:10:00,50.0,36.2,29.94,North,356,18.0,18.0,59,0.00,,,0.00,Wunderground v.1.15,2013-05-11 07:10:00,
2013-05-11 02:12:00,49.9,35.7,29.94,North,10,17.0,18.0,58,0.00,,,0.00,Wunderground v.1.15,2013-05-11 07:12:00,
2013-05-11 02:16:00,49.6,35.0,29.94,North,349,16.0,19.0,57,0.00,,,0.00,Wunderground v.1.15,2013-05-11 07:16:00,
2013-05-11 02:18:00,49.5,34.4,29.94,NE,34,16.0,21.0,56,0.00,,,0.00,Wunderground v.1.15,2013-05-11 07:18:00,
2013-05-11 02:20:00,49.5,34.4,29.94,NNE,20,17.0,20.0,56,0.00,,,0.00,Wunderground v.1.15,2013-05-11 07:20:00,
2013-05-11 02:22:00,49.4,34.3,29.94,North,1,17.0,20.0,56,0.00,,,0.00,Wunderground v.1.15,2013-05-11 07:22:00,
2013-05-11 02:24:00,49.3,34.3,29.94,North,358,18.0,20.0,56,0.00,,,0.00,Wunderground v.1.15,2013-05-11 07:24:00,
2013-05-11 02:26:00,49.2,33.7,29.94,NNW,335,18.0,20.0,55,0.00,,,0.00,Wunderground v.1.15,2013-05-11 07:26:00,
2013-05-11 02:28:00,49.1,34.1,29.94,NNE,15,19.0,20.0,56,0.00,,,0.00,Wunderground v.1.15,2013-05-11 07:28:00,
2013-05-11 02:32:00,48.9,33.9,29.95,NNE,13,18.0,19.0,56,0.00,,,0.00,Wunderground v.1.15,2013-05-11 07:32:00,
2013-05-11 02:34:00,48.8,33.8,29.95,NNW,348,18.0,19.0,56,0.00,,,0.00,Wunderground v.1.15,2013-05-11 07:34:00,
2013-05-11 02:40:00,48.5,33.5,29.95,North,3,18.0,20.0,56,0.00,,,0.00,Wunderground v.1.15,2013-05-11 07:40:00,
2013-05-11 02:42:00,48.5,33.5,29.95,NNW,342,19.0,20.0,56,0.00,,,0.00,Wunderground v.1.15,2013-05-11 07:42:00,
2013-05-11 02:44:00,48.4,33.4,29.95,NW,305,19.0,24.0,56,0.00,,,0.00,Wunderground v.1.15,2013-05-11 07:44:00,
2013-05-11 02:46:00,48.4,33.9,29.95,NNW,333,20.0,24.0,57,0.00,,,0.00,Wunderground v.1.15,2013-05-11 07:46:00,
2013-05-11 02:50:00,48.3,33.8,29.95,NNW,338,20.0,22.0,57,0.00,,,0.00,Wunderground v.1.15,2013-05-11 07:50:00,
2013-05-11 02:54:00,48.0,33.5,29.95,NNW,332,19.0,22.0,57,0.00,,,0.00,Wunderground v.1.15,2013-05-11 07:54:00,
2013-05-11 02:56:00,47.8,33.7,29.95,NNE,14,18.0,22.0,58,0.00,,,0.00,Wunderground v.1.15,2013-05-11 07:56:00,
2013-05-11 02:58:00,47.6,33.5,29.95,NNW,328,16.0,22.0,58,0.00,,,0.00,Wunderground v.1.15,2013-05-11 07:58:00,
2013-05-11 03:00:00,47.5,33.4,29.95,NNW,330,15.0,15.0,58,0.00,,,0.00,Wunderground v.1.15,2013-05-11 08:00:00,
2013-05-11 03:02:00,47.3,33.7,29.95,NNW,346,14.0,15.0,59,0.00,,,0.00,Wunderground v.1.15,2013-05-11 08:02:00,
2013-05-11 03:05:00,47.1,33.5,29.95,North,355,15.0,15.0,59,0.00,,,0.00,Wunderground v.1.15,2013-05-11 08:05:00,
2013-05-11 03:07:00,47.0,33.4,29.95,North,352,15.0,15.0,59,0.00,,,0.00,Wunderground v.1.15,2013-05-11 08:07:00,
2013-05-11 03:10:00,46.9,33.3,29.96,NNW,338,15.0,15.0,59,0.00,,,0.00,Wunderground v.1.15,2013-05-11 08:10:00,
2013-05-11 03:12:00,46.8,33.2,29.95,NNW,342,15.0,15.0,59,0.00,,,0.00,Wunderground v.1.15,2013-05-11 08:12:00,
2013-05-11 03:14:00,46.7,33.1,29.96,North,355,14.0,18.0,59,0.00,,,0.00,Wunderground v.1.15,2013-05-11 08:14:00,
2013-05-11 03:16:00,46.6,33.0,29.96,NNE,20,14.0,19.0,59,0.00,,,0.00,Wunderground v.1.15,2013-05-11 08:16:00,
2013-05-11 03:18:00,46.5,32.9,29.96,NNW,338,14.0,19.0,59,0.00,,,0.00,Wunderground v.1.15,2013-05-11 08:18:00,
2013-05-11 03:24:00,46.2,33.1,29.96,North,349,14.0,16.0,60,0.00,,,0.00,Wunderground v.1.15,2013-05-11 08:24:00,
2013-05-11 03:26:00,46.1,33.0,29.96,NNW,340,14.0,16.0,60,0.00,,,0.00,Wunderground v.1.15,2013-05-11 08:26:00,
2013-05-11 03:28:00,45.9,33.2,29.96,NW,326,14.0,18.0,61,0.00,,,0.00,Wunderground v.1.15,2013-05-11 08:28:00,
2013-05-11 03:30:00,45.9,32.8,29.96,North,3,14.0,16.0,60,0.00,,,0.00,Wunderground v.1.15,2013-05-11 08:30:00,
2013-05-11 03:32:00,45.8,33.1,29.96,NW,321,15.0,16.0,61,0.00,,,0.00,Wunderground v.1.15,2013-05-11 08:32:00,
2013-05-11 03:34:00,45.8,32.7,29.96,North,4,16.0,16.0,60,0.00,,,0.00,Wunderground v.1.15,2013-05-11 08:34:00,
2013-05-11 03:38:00,45.6,32.9,29.97,NW,323,17.0,17.0,61,0.00,,,0.00,Wunderground v.1.15,2013-05-11 08:38:00,
2013-05-11 03:40:00,45.6,32.9,29.97,NNW,343,16.0,16.0,61,0.00,,,0.00,Wunderground v.1.15,2013-05-11 08:40:00,
2013-05-11 03:42:00,45.5,32.8,29.97,North,352,16.0,18.0,61,0.00,,,0.00,Wunderground v.1.15,2013-05-11 08:42:00,
2013-05-11 03:44:00,45.5,32.8,29.97,North,6,16.0,18.0,61,0.00,,,0.00,Wunderground v.1.15,2013-05-11 08:44:00,
2013-05-11 03:46:00,45.4,32.7,29.97,NNW,338,16.0,18.0,61,0.00,,,0.00,Wunderground v.1.15,2013-05-11 08:46:00,
2013-05-11 03:48:00,45.3,32.6,29.97,NW,323,16.0,18.0,61,0.00,,,0.00,Wunderground v.1.15,2013-05-11 08:48:00,
2013-05-11 03:50:00,45.3,32.6,29.98,NNW,344,15.0,15.0,61,0.00,,,0.00,Wunderground v.1.15,2013-05-11 08:50:00,
2013-05-11 03:52:00,45.2,32.5,29.98,NNW,330,16.0,16.0,61,0.00,,,0.00,Wunderground v.1.15,2013-05-11 08:52:00,
2013-05-11 03:54:00,45.2,32.5,29.98,NNW,330,16.0,16.0,61,0.00,,,0.00,Wunderground v.1.15,2013-05-11 08:54:00,
2013-05-11 03:56:00,45.1,32.4,29.98,North,355,16.0,16.0,61,0.00,,,0.00,Wunderground v.1.15,2013-05-11 08:56:00,
2013-05-11 03:58:00,45.0,32.3,29.98,North,9,15.0,17.0,61,0.00,,,0.00,Wunderground v.1.15,2013-05-11 08:58:00,
2013-05-11 04:00:00,45.0,32.3,29.98,North,349,16.0,16.0,61,0.00,,,0.00,Wunderground v.1.15,2013-05-11 09:00:00,
2013-05-11 04:04:00,44.8,32.6,29.98,North,8,15.0,16.0,62,0.00,,,0.00,Wunderground v.1.15,2013-05-11 09:04:00,
2013-05-11 04:06:00,44.8,32.6,29.99,NNW,337,15.0,17.0,62,0.00,,,0.00,Wunderground v.1.15,2013-05-11 09:06:00,
2013-05-11 04:08:00,44.8,32.6,29.99,North,349,16.0,18.0,62,0.00,,,0.00,Wunderground v.1.15,2013-05-11 09:08:00,
2013-05-11 04:10:00,44.7,32.5,29.99,NNW,337,15.0,17.0,62,0.00,,,0.00,Wunderground v.1.15,2013-05-11 09:10:00,
2013-05-11 04:14:00,44.6,32.4,29.99,NNW,332,15.0,18.0,62,0.00,,,0.00,Wunderground v.1.15,2013-05-11 09:14:00,
2013-05-11 04:16:00,44.6,32.4,29.99,NNE,12,15.0,18.0,62,0.00,,,0.00,Wunderground v.1.15,2013-05-11 09:16:00,
2013-05-11 04:18:00,44.5,32.7,29.99,NNW,343,14.0,18.0,63,0.00,,,0.00,Wunderground v.1.15,2013-05-11 09:18:00,
2013-05-11 04:20:00,44.3,32.5,29.99,North,356,13.0,13.0,63,0.00,,,0.00,Wunderground v.1.15,2013-05-11 09:20:00,
2013-05-11 04:22:00,44.2,32.4,29.99,NNW,335,12.0,13.0,63,0.00,,,0.00,Wunderground v.1.15,2013-05-11 09:22:00,
2013-05-11 04:24:00,44.1,32.3,29.99,NNW,347,12.0,13.0,63,0.00,,,0.00,Wunderground v.1.15,2013-05-11 09:24:00,
2013-05-11 04:28:00,43.9,32.5,29.99,NW,319,11.0,13.0,64,0.00,,,0.00,Wunderground v.1.15,2013-05-11 09:28:00,
2013-05-11 04:30:00,43.8,32.4,29.99,NW,323,11.0,13.0,64,0.00,,,0.00,Wunderground v.1.15,2013-05-11 09:30:00,
2013-05-11 04:32:00,43.7,32.7,29.99,NNW,337,11.0,13.0,65,0.00,,,0.00,Wunderground v.1.15,2013-05-11 09:32:00,
2013-05-11 04:34:00,43.5,32.5,29.99,NNW,337,11.0,13.0,65,0.00,,,0.00,Wunderground v.1.15,2013-05-11 09:34:00,
2013-05-11 04:36:00,43.4,32.4,29.99,NNW,332,11.0,13.0,65,0.00,,,0.00,Wunderground v.1.15,2013-05-11 09:36:00,
2013-05-11 04:38:00,43.3,32.7,29.99,NNW,342,11.0,13.0,66,0.00,,,0.00,Wunderground v.1.15,2013-05-11 09:38:00,
2013-05-11 04:42:00,43.3,32.7,29.99,NNW,333,12.0,14.0,66,0.00,,,0.00,Wunderground v.1.15,2013-05-11 09:42:00,
2013-05-11 04:44:00,43.3,33.1,29.99,NNE,13,12.0,15.0,67,0.00,,,0.00,Wunderground v.1.15,2013-05-11 09:44:00,
2013-05-11 04:46:00,43.3,33.1,30.00,North,350,13.0,15.0,67,0.00,,,0.00,Wunderground v.1.15,2013-05-11 09:46:00,
2013-05-11 04:48:00,43.2,33.0,30.00,NNW,330,12.0,15.0,67,0.00,,,0.00,Wunderground v.1.15,2013-05-11 09:48:00,
2013-05-11 04:50:00,43.1,32.9,30.00,NNW,335,12.0,13.0,67,0.00,,,0.00,Wunderground v.1.15,2013-05-11 09:50:00,
2013-05-11 04:52:00,43.1,32.9,30.00,NNW,332,12.0,13.0,67,0.00,,,0.00,Wunderground v.1.15,2013-05-11 09:52:00,
2013-05-11 04:54:00,43.1,32.9,30.00,North,352,12.0,16.0,67,0.00,,,0.00,Wunderground v.1.15,2013-05-11 09:54:00,
2013-05-11 04:58:00,43.0,33.2,30.00,NNW,340,12.0,16.0,68,0.00,,,0.00,Wunderground v.1.15,2013-05-11 09:58:00,
2013-05-11 05:02:00,42.9,33.4,30.00,NNW,333,12.0,13.0,69,0.00,,,0.00,Wunderground v.1.15,2013-05-11 10:02:00,
2013-05-11 05:04:00,42.9,33.4,30.00,North,1,12.0,13.0,69,0.00,,,0.00,Wunderground v.1.15,2013-05-11 10:04:00,
2013-05-11 05:06:00,42.8,33.3,30.00,NNW,330,12.0,13.0,69,0.00,,,0.00,Wunderground v.1.15,2013-05-11 10:06:00,
2013-05-11 05:08:00,42.7,33.2,30.00,NNW,345,12.0,13.0,69,0.00,,,0.00,Wunderground v.1.15,2013-05-11 10:08:00,
2013-05-11 05:10:00,42.6,33.1,30.00,NNW,340,11.0,11.0,69,0.00,,,0.00,Wunderground v.1.15,2013-05-11 10:10:00,
2013-05-11 05:12:00,42.5,33.0,30.00,NNW,338,11.0,11.0,69,0.00,,,0.00,Wunderground v.1.15,2013-05-11 10:12:00,
2013-05-11 05:16:00,42.3,33.2,30.00,NNW,330,10.0,11.0,70,0.00,,,0.00,Wunderground v.1.15,2013-05-11 10:16:00,
2013-05-11 05:17:00,42.1,33.0,30.00,NNW,333,9.0,12.0,70,0.00,,,0.00,Wunderground v.1.15,2013-05-11 10:17:00,
2013-05-11 05:22:00,41.8,33.1,30.01,NW,318,9.0,11.0,71,0.00,,,0.00,Wunderground v.1.15,2013-05-11 10:22:00,
2013-05-11 05:24:00,41.6,33.2,30.01,NNW,347,9.0,11.0,72,0.00,,,0.00,Wunderground v.1.15,2013-05-11 10:24:00,
2013-05-11 05:28:00,41.4,33.0,30.01,NNW,336,9.0,11.0,72,0.00,,,0.00,Wunderground v.1.15,2013-05-11 10:28:00,
2013-05-11 05:30:00,41.3,33.3,30.01,NNW,332,9.0,9.0,73,0.00,,,0.00,Wunderground v.1.15,2013-05-11 10:30:00,
2013-05-11 05:32:00,41.2,33.2,30.01,NW,305,9.0,9.0,73,0.00,,,0.00,Wunderground v.1.15,2013-05-11 10:32:00,
2013-05-11 05:34:00,41.2,33.2,30.01,NNW,339,10.0,11.0,73,0.00,,,0.00,Wunderground v.1.15,2013-05-11 10:34:00,
2013-05-11 05:40:00,41.0,33.0,30.01,NW,325,10.0,11.0,73,0.00,,,0.00,Wunderground v.1.15,2013-05-11 10:40:00,
2013-05-11 05:42:00,41.0,33.3,30.01,NNW,334,10.0,11.0,74,0.00,,,0.00,Wunderground v.1.15,2013-05-11 10:42:00,
2013-05-11 05:44:00,40.9,33.2,30.02,NW,325,10.0,11.0,74,0.00,,,0.00,Wunderground v.1.15,2013-05-11 10:44:00,
2013-05-11 05:46:00,40.9,33.2,30.02,NNW,329,10.0,11.0,74,0.00,,,0.00,Wunderground v.1.15,2013-05-11 10:46:00,
2013-05-11 05:48:00,40.8,33.2,30.02,NW,326,10.0,11.0,74,0.00,,,0.00,Wunderground v.1.15,2013-05-11 10:48:00,
2013-05-11 05:52:00,40.8,33.5,30.02,NNW,337,10.0,15.0,75,0.00,,,0.00,Wunderground v.1.15,2013-05-11 10:52:00,
2013-05-11 05:54:00,40.8,33.5,30.02,NNW,328,11.0,15.0,75,0.00,,,0.00,Wunderground v.1.15,2013-05-11 10:54:00,
2013-05-11 05:56:00,40.8,33.5,30.03,NNW,330,11.0,15.0,75,0.00,,,0.00,Wunderground v.1.15,2013-05-11 10:56:00,
2013-05-11 05:58:00,40.8,33.8,30.03,NNW,340,11.0,15.0,76,0.00,,,0.00,Wunderground v.1.15,2013-05-11 10:58:00,
2013-05-11 06:00:00,40.8,33.8,30.03,North,4,11.0,13.0,76,0.00,,,0.00,Wunderground v.1.15,2013-05-11 11:00:00,
2013-05-11 06:04:00,40.9,33.9,30.03,NW,320,12.0,13.0,76,0.00,,,0.00,Wunderground v.1.15,2013-05-11 11:04:00,
2013-05-11 06:06:00,40.8,34.1,30.03,NNW,343,12.0,13.0,77,0.00,,,0.00,Wunderground v.1.15,2013-05-11 11:06:00,
2013-05-11 06:10:00,40.8,34.1,30.03,NNW,347,12.0,12.0,77,0.00,,,0.00,Wunderground v.1.15,2013-05-11 11:10:00,
2013-05-11 06:12:00,40.9,34.6,30.03,NNW,334,12.0,14.0,78,0.00,,,0.00,Wunderground v.1.15,2013-05-11 11:12:00,
2013-05-11 06:16:00,40.8,34.5,30.03,NW,314,13.0,15.0,78,0.00,,,0.00,Wunderground v.1.15,2013-05-11 11:16:00,
2013-05-11 06:18:00,40.9,34.6,30.03,NNW,343,13.0,15.0,78,0.00,,,0.00,Wunderground v.1.15,2013-05-11 11:18:00,
2013-05-11 06:20:00,40.9,34.6,30.04,North,349,13.0,14.0,78,0.00,,,0.00,Wunderground v.1.15,2013-05-11 11:20:00,
2013-05-11 06:22:00,40.9,34.6,30.04,NNW,329,13.0,14.0,78,0.00,,,0.00,Wunderground v.1.15,2013-05-11 11:22:00,
2013-05-11 06:24:00,40.9,34.9,30.04,North,354,13.0,15.0,79,0.00,,,0.00,Wunderground v.1.15,2013-05-11 11:24:00,
2013-05-11 06:26:00,41.0,34.7,30.04,NNW,344,13.0,15.0,78,0.00,,,0.00,Wunderground v.1.15,2013-05-11 11:26:00,
2013-05-11 06:28:00,41.0,34.7,30.04,NW,317,13.0,15.0,78,0.00,,,0.00,Wunderground v.1.15,2013-05-11 11:28:00,
2013-05-11 06:30:00,41.0,34.7,30.04,North,5,13.0,15.0,78,0.00,,,0.00,Wunderground v.1.15,2013-05-11 11:30:00,
2013-05-11 06:32:00,41.0,34.7,30.04,NNW,342,13.0,15.0,78,0.00,,,0.00,Wunderground v.1.15,2013-05-11 11:32:00,
2013-05-11 06:34:00,41.1,34.8,30.04,NNW,335,13.0,15.0,78,0.00,,,0.00,Wunderground v.1.15,2013-05-11 11:34:00,
2013-05-11 06:36:00,41.1,34.8,30.04,NNW,338,12.0,15.0,78,0.00,,,0.00,Wunderground v.1.15,2013-05-11 11:36:00,
2013-05-11 06:38:00,41.1,34.8,30.04,NNW,328,12.0,15.0,78,0.00,,,0.00,Wunderground v.1.15,2013-05-11 11:38:00,
2013-05-11 06:40:00,41.1,34.8,30.05,NNW,335,12.0,12.0,78,0.00,,,0.00,Wunderground v.1.15,2013-05-11 11:40:00,
2013-05-11 06:42:00,41.1,34.8,30.05,NNW,342,12.0,12.0,78,0.00,,,0.00,Wunderground v.1.15,2013-05-11 11:42:00,
2013-05-11 06:46:00,41.2,34.9,30.05,NNW,332,12.0,14.0,78,0.00,,,0.00,Wunderground v.1.15,2013-05-11 11:46:00,
2013-05-11 06:48:00,41.3,35.0,30.05,NW,325,12.0,14.0,78,0.00,,,0.00,Wunderground v.1.15,2013-05-11 11:48:00,
2013-05-11 06:52:00,41.3,35.0,30.06,NW,320,11.0,11.0,78,0.00,,,0.00,Wunderground v.1.15,2013-05-11 11:52:00,
2013-05-11 06:54:00,41.4,35.1,30.06,NNW,332,10.0,11.0,78,0.00,,,0.00,Wunderground v.1.15,2013-05-11 11:54:00,
2013-05-11 06:58:00,41.5,34.8,30.06,NNW,327,11.0,12.0,77,0.00,,,0.00,Wunderground v.1.15,2013-05-11 11:58:00,
2013-05-11 07:02:00,41.5,34.8,30.06,NNW,337,11.0,17.0,77,0.00,,,0.00,Wunderground v.1.15,2013-05-11 12:02:00,
2013-05-11 07:04:00,41.6,35.2,30.06,NW,326,11.0,17.0,78,0.00,,,0.00,Wunderground v.1.15,2013-05-11 12:04:00,
2013-05-11 07:08:00,41.7,35.0,30.07,NNW,332,11.0,17.0,77,0.00,,,0.00,Wunderground v.1.15,2013-05-11 12:08:00,
2013-05-11 07:10:00,41.8,35.1,30.07,NW,320,11.0,11.0,77,0.00,,,0.00,Wunderground v.1.15,2013-05-11 12:10:00,
2013-05-11 07:12:00,41.8,34.8,30.07,NNW,343,12.0,15.0,76,0.00,,,0.00,Wunderground v.1.15,2013-05-11 12:12:00,
2013-05-11 07:18:00,42.0,34.6,30.07,North,1,14.0,16.0,75,0.00,,,0.00,Wunderground v.1.15,2013-05-11 12:18:00,
2013-05-11 07:20:00,42.0,34.6,30.08,North,1,15.0,17.0,75,0.00,,,0.00,Wunderground v.1.15,2013-05-11 12:20:00,
2013-05-11 07:22:00,42.1,35.1,30.08,North,354,14.0,17.0,76,0.00,,,0.00,Wunderground v.1.15,2013-05-11 12:22:00,
2013-05-11 07:24:00,42.2,34.8,30.08,NW,325,14.0,17.0,75,0.00,,,0.00,Wunderground v.1.15,2013-05-11 12:24:00,
2013-05-11 07:28:00,42.3,34.9,30.08,North,6,14.0,21.0,75,0.00,,,0.00,Wunderground v.1.15,2013-05-11 12:28:00,
2013-05-11 07:30:00,42.4,35.0,30.08,North,350,13.0,13.0,75,0.00,,,0.00,Wunderground v.1.15,2013-05-11 12:30:00,
2013-05-11 07:34:00,42.6,34.9,30.08,NNW,335,13.0,13.0,74,0.00,,,0.00,Wunderground v.1.15,2013-05-11 12:34:00,
2013-05-11 07:36:00,42.7,35.0,30.08,North,354,12.0,13.0,74,0.00,,,0.00,Wunderground v.1.15,2013-05-11 12:36:00,
2013-05-11 07:40:00,42.9,34.8,30.08,NNW,329,12.0,17.0,73,0.00,,,0.00,Wunderground v.1.15,2013-05-11 12:40:00,
2013-05-11 07:42:00,42.9,34.8,30.08,NNW,338,13.0,19.0,73,0.00,,,0.00,Wunderground v.1.15,2013-05-11 12:42:00,
2013-05-11 07:46:00,43.1,35.0,30.08,NNW,333,13.0,19.0,73,0.00,,,0.00,Wunderground v.1.15,2013-05-11 12:46:00,
2013-05-11 07:48:00,43.2,34.8,30.08,NNW,347,13.0,19.0,72,0.00,,,0.00,Wunderground v.1.15,2013-05-11 12:48:00,
2013-05-11 07:52:00,43.4,35.0,30.08,NNW,330,12.0,15.0,72,0.00,,,0.00,Wunderground v.1.15,2013-05-11 12:52:00,
2013-05-11 07:54:00,43.5,34.7,30.08,NW,318,12.0,15.0,71,0.00,,,0.00,Wunderground v.1.15,2013-05-11 12:54:00,
2013-05-11 07:56:00,43.6,34.8,30.08,NNW,328,12.0,16.0,71,0.00,,,0.00,Wunderground v.1.15,2013-05-11 12:56:00,
2013-05-11 07:58:00,43.7,34.9,30.08,NNW,344,13.0,16.0,71,0.00,,,0.00,Wunderground v.1.15,2013-05-11 12:58:00,
2013-05-11 08:04:00,44.1,34.9,30.09,NNW,330,13.0,14.0,70,0.00,,,0.00,Wunderground v.1.15,2013-05-11 13:04:00,
2013-05-11 08:06:00,44.2,35.0,30.09,NW,317,13.0,14.0,70,0.00,,,0.00,Wunderground v.1.15,2013-05-11 13:06:00,
2013-05-11 08:08:00,44.3,35.1,30.09,NW,326,13.0,14.0,70,0.00,,,0.00,Wunderground v.1.15,2013-05-11 13:08:00,
2013-05-11 08:10:00,44.3,34.8,30.09,North,4,14.0,14.0,69,0.00,,,0.00,Wunderground v.1.15,2013-05-11 13:10:00,
2013-05-11 08:14:00,44.5,34.6,30.09,NNW,328,14.0,15.0,68,0.00,,,0.00,Wunderground v.1.15,2013-05-11 13:14:00,
2013-05-11 08:16:00,44.5,33.8,30.09,NNW,330,15.0,17.0,66,0.00,,,0.00,Wunderground v.1.15,2013-05-11 13:16:00,
2013-05-11 08:18:00,44.8,34.9,30.09,NNW,337,14.0,17.0,68,0.00,,,0.00,Wunderground v.1.15,2013-05-11 13:18:00,
2013-05-11 08:20:00,44.9,33.8,30.09,NNW,334,14.0,14.0,65,0.00,,,0.00,Wunderground v.1.15,2013-05-11 13:20:00,
2013-05-11 08:22:00,44.9,33.5,30.09,NNW,333,14.0,14.0,64,0.00,,,0.00,Wunderground v.1.15,2013-05-11 13:22:00,
2013-05-11 08:26:00,44.9,32.7,30.09,NW,321,15.0,18.0,62,0.00,,,0.00,Wunderground v.1.15,2013-05-11 13:26:00,
2013-05-11 08:28:00,45.0,32.8,30.09,NNW,333,15.0,18.0,62,0.00,,,0.00,Wunderground v.1.15,2013-05-11 13:28:00,
2013-05-11 08:30:00,45.0,32.3,30.09,NNW,333,15.0,15.0,61,0.00,,,0.00,Wunderground v.1.15,2013-05-11 13:30:00,
2013-05-11 08:32:00,45.0,32.3,30.09,North,359,16.0,16.0,61,0.00,,,0.00,Wunderground v.1.15,2013-05-11 13:32:00,
2013-05-11 08:34:00,45.1,32.0,30.09,NNE,16,16.0,16.0,60,0.00,,,0.00,Wunderground v.1.15,2013-05-11 13:34:00,
2013-05-11 08:36:00,45.2,31.3,30.09,NNW,336,15.0,16.0,58,0.00,,,0.00,Wunderground v.1.15,2013-05-11 13:36:00,
2013-05-11 08:40:00,45.4,31.5,30.09,North,350,16.0,21.0,58,0.00,,,0.00,Wunderground v.1.15,2013-05-11 13:40:00,
2013-05-11 08:42:00,45.5,31.1,30.09,NNW,332,15.0,21.0,57,0.00,,,0.00,Wunderground v.1.15,2013-05-11 13:42:00,
2013-05-11 08:44:00,45.8,31.0,30.09,North,360,15.0,21.0,56,0.00,,,0.00,Wunderground v.1.15,2013-05-11 13:44:00,
2013-05-11 08:46:00,46.0,31.2,30.09,North,10,15.0,21.0,56,0.00,,,0.00,Wunderground v.1.15,2013-05-11 13:46:00,
2013-05-11 08:48:00,46.2,31.8,30.09,NNW,332,15.0,21.0,57,0.00,,,0.00,Wunderground v.1.15,2013-05-11 13:48:00,
2013-05-11 08:52:00,46.5,30.7,30.09,North,352,15.0,21.0,54,0.00,,,0.00,Wunderground v.1.15,2013-05-11 13:52:00,
2013-05-11 08:54:00,46.4,31.1,30.09,NW,316,15.0,21.0,55,0.00,,,0.00,Wunderground v.1.15,2013-05-11 13:54:00,
2013-05-11 08:58:00,46.7,30.9,30.10,North,360,16.0,21.0,54,0.00,,,0.00,Wunderground v.1.15,2013-05-11 13:58:00,
2013-05-11 09:00:00,46.7,31.4,30.10,NNW,333,16.0,18.0,55,0.00,,,0.00,Wunderground v.1.15,2013-05-11 14:00:00,
2013-05-11 09:04:00,46.9,31.1,30.10,NNW,333,15.0,18.0,54,0.00,,,0.00,Wunderground v.1.15,2013-05-11 14:04:00,
2013-05-11 09:06:00,46.9,31.1,30.10,NNE,18,15.0,20.0,54,0.00,,,0.00,Wunderground v.1.15,2013-05-11 14:06:00,
2013-05-11 09:08:00,46.9,30.6,30.10,NNW,338,16.0,20.0,53,0.00,,,0.00,Wunderground v.1.15,2013-05-11 14:08:00,
2013-05-11 09:12:00,47.2,31.4,30.10,NNW,327,16.0,16.0,54,0.00,,,0.00,Wunderground v.1.15,2013-05-11 14:12:00,
2013-05-11 09:16:00,47.5,31.7,30.10,NNW,333,17.0,17.0,54,0.00,,,0.00,Wunderground v.1.15,2013-05-11 14:16:00,
2013-05-11 09:18:00,47.7,32.3,30.11,NNW,328,16.0,18.0,55,0.00,,,0.00,Wunderground v.1.15,2013-05-11 14:18:00,
2013-05-11 09:20:00,47.6,31.3,30.10,NNW,344,17.0,17.0,53,0.00,,,0.00,Wunderground v.1.15,2013-05-11 14:20:00,
2013-05-11 09:22:00,47.5,31.2,30.11,North,360,17.0,17.0,53,0.00,,,0.00,Wunderground v.1.15,2013-05-11 14:22:00,
2013-05-11 09:26:00,47.9,31.1,30.11,NNW,327,16.0,19.0,52,0.00,,,0.00,Wunderground v.1.15,2013-05-11 14:26:00,
2013-05-11 09:28:00,48.0,30.7,30.11,NNW,339,16.0,19.0,51,0.00,,,0.00,Wunderground v.1.15,2013-05-11 14:28:00,
2013-05-11 09:30:00,47.9,31.1,30.11,North,6,16.0,21.0,52,0.00,,,0.00,Wunderground v.1.15,2013-05-11 14:30:00,
2013-05-11 09:32:00,47.8,30.5,30.11,NW,323,17.0,21.0,51,0.00,,,0.00,Wunderground v.1.15,2013-05-11 14:32:00,
2013-05-11 09:36:00,47.8,30.5,30.11,NNW,327,18.0,21.0,51,0.00,,,0.00,Wunderground v.1.15,2013-05-11 14:36:00,
2013-05-11 09:38:00,47.5,31.2,30.11,North,349,18.0,21.0,53,0.00,,,0.00,Wunderground v.1.15,2013-05-11 14:38:00,
2013-05-11 09:40:00,47.4,31.1,30.11,NW,314,18.0,18.0,53,0.00,,,0.00,Wunderground v.1.15,2013-05-11 14:40:00,
2013-05-11 09:42:00,47.4,31.6,30.11,NNW,337,18.0,18.0,54,0.00,,,0.00,Wunderground v.1.15,2013-05-11 14:42:00,
2013-05-11 09:46:00,47.7,32.3,30.11,NNW,334,17.0,18.0,55,0.00,,,0.00,Wunderground v.1.15,2013-05-11 14:46:00,
2013-05-11 09:48:00,48.1,33.1,30.11,NNW,336,17.0,21.0,56,0.00,,,0.00,Wunderground v.1.15,2013-05-11 14:48:00,
2013-05-11 09:52:00,47.5,31.7,30.11,North,5,19.0,21.0,54,0.00,,,0.00,Wunderground v.1.15,2013-05-11 14:52:00,
2013-05-11 09:54:00,47.2,32.7,30.11,North,354,19.0,21.0,57,0.00,,,0.00,Wunderground v.1.15,2013-05-11 14:54:00,
2013-05-11 09:56:00,47.3,32.8,30.11,NNW,332,20.0,21.0,57,0.00,,,0.00,Wunderground v.1.15,2013-05-11 14:56:00,
2013-05-11 09:58:00,47.2,32.3,30.11,NNW,345,20.0,23.0,56,0.00,,,0.00,Wunderground v.1.15,2013-05-11 14:58:00,
2013-05-11 10:00:00,46.7,31.8,30.11,NNW,335,20.0,21.0,56,0.00,,,0.00,Wunderground v.1.15,2013-05-11 15:00:00,
2013-05-11 10:06:00,46.8,32.8,30.12,NNW,327,20.0,21.0,58,0.00,,,0.00,Wunderground v.1.15,2013-05-11 15:06:00,
2013-05-11 10:08:00,46.9,32.0,30.12,NNW,341,20.0,21.0,56,0.00,,,0.00,Wunderground v.1.15,2013-05-11 15:08:00,
2013-05-11 10:10:00,46.8,32.8,30.12,NNW,335,19.0,19.0,58,0.00,,,0.00,Wunderground v.1.15,2013-05-11 15:10:00,
2013-05-11 10:14:00,46.9,32.9,30.12,NW,316,19.0,19.0,58,0.00,,,0.00,Wunderground v.1.15,2013-05-11 15:14:00,
2013-05-11 10:16:00,47.5,33.0,30.12,NW,319,19.0,22.0,57,0.00,,,0.00,Wunderground v.1.15,2013-05-11 15:16:00,
2013-05-11 10:20:00,47.6,33.5,30.13,NNW,336,19.0,19.0,58,0.00,,,0.00,Wunderground v.1.15,2013-05-11 15:20:00,
2013-05-11 10:22:00,48.1,32.7,30.12,NNW,333,19.0,19.0,55,0.00,,,0.00,Wunderground v.1.15,2013-05-11 15:22:00,
2013-05-11 10:28:00,48.0,31.7,30.12,NNW,340,19.0,20.0,53,0.00,,,0.00,Wunderground v.1.15,2013-05-11 15:28:00,
2013-05-11 10:30:00,48.1,31.8,30.13,NW,323,19.0,19.0,53,0.00,,,0.00,Wunderground v.1.15,2013-05-11 15:30:00,
2013-05-11 10:32:00,47.9,31.1,30.12,NNW,348,19.0,19.0,52,0.00,,,0.00,Wunderground v.1.15,2013-05-11 15:32:00,
2013-05-11 10:34:00,47.5,30.7,30.12,North,349,19.0,19.0,52,0.00,,,0.00,Wunderground v.1.15,2013-05-11 15:34:00,
2013-05-11 10:40:00,47.7,30.4,30.12,NW,322,18.0,18.0,51,0.00,,,0.00,Wunderground v.1.15,2013-05-11 15:40:00,
2013-05-11 10:42:00,47.9,29.6,30.12,NW,319,19.0,23.0,49,0.00,,,0.00,Wunderground v.1.15,2013-05-11 15:42:00,
2013-05-11 10:44:00,48.0,29.7,30.12,NNE,21,20.0,24.0,49,0.00,,,0.00,Wunderground v.1.15,2013-05-11 15:44:00,
2013-05-11 10:46:00,48.0,29.7,30.13,NNW,347,21.0,24.0,49,0.00,,,0.00,Wunderground v.1.15,2013-05-11 15:46:00,
2013-05-11 10:50:00,48.3,27.9,30.12,NW,315,22.0,22.0,45,0.00,,,0.00,Wunderground v.1.15,2013-05-11 15:50:00,
2013-05-11 10:52:00,48.5,29.2,30.12,NNW,335,21.0,22.0,47,0.00,,,0.00,Wunderground v.1.15,2013-05-11 15:52:00,
2013-05-11 10:56:00,49.0,29.1,30.13,NNW,330,20.0,27.0,46,0.00,,,0.00,Wunderground v.1.15,2013-05-11 15:56:00,
2013-05-11 10:58:00,48.9,28.5,30.13,NNW,338,20.0,27.0,45,0.00,,,0.00,Wunderground v.1.15,2013-05-11 15:58:00,
2013-05-11 11:00:00,48.9,29.0,30.12,NNW,335,20.0,28.0,46,0.00,,,0.00,Wunderground v.1.15,2013-05-11 16:00:00,
2013-05-11 11:02:00,48.8,27.8,30.12,NNW,337,21.0,28.0,44,0.00,,,0.00,Wunderground v.1.15,2013-05-11 16:02:00,
2013-05-11 11:04:00,48.8,28.4,30.12,North,356,21.0,28.0,45,0.00,,,0.00,Wunderground v.1.15,2013-05-11 16:04:00,
2013-05-11 11:06:00,49.1,29.2,30.13,North,4,21.0,28.0,46,0.00,,,0.00,Wunderground v.1.15,2013-05-11 16:06:00,
2013-05-11 11:08:00,49.6,30.2,30.13,NNW,335,20.0,28.0,47,0.00,,,0.00,Wunderground v.1.15,2013-05-11 16:08:00,
2013-05-11 11:10:00,49.8,29.8,30.12,North,6,20.0,26.0,46,0.00,,,0.00,Wunderground v.1.15,2013-05-11 16:10:00,
2013-05-11 11:12:00,49.9,30.5,30.13,North,350,20.0,26.0,47,0.00,,,0.00,Wunderground v.1.15,2013-05-11 16:12:00,
2013-05-11 11:16:00,49.1,27.5,30.13,NNW,342,20.0,27.0,43,0.00,,,0.00,Wunderground v.1.15,2013-05-11 16:16:00,
2013-05-11 11:18:00,48.8,27.8,30.13,NNW,343,21.0,27.0,44,0.00,,,0.00,Wunderground v.1.15,2013-05-11 16:18:00,
2013-05-11 11:20:00,48.9,27.9,30.13,North,350,21.0,21.0,44,0.00,,,0.00,Wunderground v.1.15,2013-05-11 16:20:00,
2013-05-11 11:24:00,49.7,29.7,30.13,North,350,20.0,21.0,46,0.00,,,0.00,Wunderground v.1.15,2013-05-11 16:24:00,
2013-05-11 11:26:00,49.9,28.3,30.13,NNE,14,19.0,21.0,43,0.00,,,0.00,Wunderground v.1.15,2013-05-11 16:26:00,
2013-05-11 11:30:00,49.9,27.1,30.13,NW,317,19.0,25.0,41,0.00,,,0.00,Wunderground v.1.15,2013-05-11 16:30:00,
2013-05-11 11:32:00,49.5,28.5,30.13,North,356,19.0,25.0,44,0.00,,,0.00,Wunderground v.1.15,2013-05-11 16:32:00,
2013-05-11 11:34:00,49.5,27.9,30.13,North,10,20.0,25.0,43,0.00,,,0.00,Wunderground v.1.15,2013-05-11 16:34:00,
2013-05-11 11:38:00,49.9,27.7,30.13,North,4,22.0,30.0,42,0.00,,,0.00,Wunderground v.1.15,2013-05-11 16:38:00,
2013-05-11 11:40:00,50.0,27.2,30.13,NNW,348,22.0,22.0,41,0.00,,,0.00,Wunderground v.1.15,2013-05-11 16:40:00,
2013-05-11 11:42:00,50.1,27.9,30.13,NNE,16,22.0,22.0,42,0.00,,,0.00,Wunderground v.1.15,2013-05-11 16:42:00,
2013-05-11 11:44:00,50.2,28.0,30.13,NNW,335,21.0,22.0,42,0.00,,,0.00,Wunderground v.1.15,2013-05-11 16:44:00,
2013-05-11 11:48:00,50.0,27.2,30.13,NNE,15,20.0,22.0,41,0.00,,,0.00,Wunderground v.1.15,2013-05-11 16:48:00,
2013-05-11 11:50:00,49.8,26.4,30.13,NNW,345,20.0,20.0,40,0.00,,,0.00,Wunderground v.1.15,2013-05-11 16:50:00,
2013-05-11 11:52:00,49.6,28.0,30.13,NNW,335,20.0,20.0,43,0.00,,,0.00,Wunderground v.1.15,2013-05-11 16:52:00,
2013-05-11 11:54:00,49.7,28.1,30.13,North,349,20.0,21.0,43,0.00,,,0.00,Wunderground v.1.15,2013-05-11 16:54:00,
2013-05-11 11:58:00,50.1,27.9,30.13,NNW,335,20.0,23.0,42,0.00,,,0.00,Wunderground v.1.15,2013-05-11 16:58:00,
2013-05-11 12:00:00,50.1,27.9,30.13,NNW,330,20.0,27.0,42,0.00,,,0.00,Wunderground v.1.15,2013-05-11 17:00:00,
2013-05-11 12:02:00,50.0,27.2,30.13,NNW,327,21.0,27.0,41,0.00,,,0.00,Wunderground v.1.15,2013-05-11 17:02:00,
2013-05-11 12:08:00,49.7,26.9,30.13,NNW,336,22.0,27.0,41,0.00,,,0.00,Wunderground v.1.15,2013-05-11 17:08:00,
2013-05-11 12:10:00,49.6,27.4,30.13,NNW,342,20.0,20.0,42,0.00,,,0.00,Wunderground v.1.15,2013-05-11 17:10:00,
2013-05-11 12:12:00,50.0,28.9,30.13,NNE,16,20.0,21.0,44,0.00,,,0.00,Wunderground v.1.15,2013-05-11 17:12:00,
2013-05-11 12:18:00,50.6,29.5,30.13,NW,319,19.0,21.0,44,0.00,,,0.00,Wunderground v.1.15,2013-05-11 17:18:00,
2013-05-11 12:20:00,50.5,27.0,30.13,North,6,20.0,22.0,40,0.00,,,0.00,Wunderground v.1.15,2013-05-11 17:20:00,
2013-05-11 12:22:00,50.1,26.7,30.13,NNE,33,21.0,22.0,40,0.00,,,0.00,Wunderground v.1.15,2013-05-11 17:22:00,
2013-05-11 12:26:00,50.0,27.2,30.13,NNW,335,20.0,22.0,41,0.00,,,0.00,Wunderground v.1.15,2013-05-11 17:26:00,
2013-05-11 12:28:00,50.4,27.6,30.13,NNW,344,20.0,22.0,41,0.00,,,0.00,Wunderground v.1.15,2013-05-11 17:28:00,
2013-05-11 12:32:00,50.5,25.8,30.13,NNW,338,20.0,24.0,38,0.00,,,0.00,Wunderground v.1.15,2013-05-11 17:32:00,
2013-05-11 12:34:00,50.5,27.0,30.13,NNW,340,21.0,24.0,40,0.00,,,0.00,Wunderground v.1.15,2013-05-11 17:34:00,
2013-05-11 12:36:00,51.1,28.8,30.13,NNW,327,21.0,24.0,42,0.00,,,0.00,Wunderground v.1.15,2013-05-11 17:36:00,
2013-05-11 12:40:00,51.0,26.9,30.13,NNW,348,20.0,22.0,39,0.00,,,0.00,Wunderground v.1.15,2013-05-11 17:40:00,
2013-05-11 12:42:00,50.8,26.7,30.13,NNW,338,20.0,22.0,39,0.00,,,0.00,Wunderground v.1.15,2013-05-11 17:42:00,
2013-05-11 12:44:00,51.1,29.4,30.13,NNW,347,19.0,22.0,43,0.00,,,0.00,Wunderground v.1.15,2013-05-11 17:44:00,
2013-05-11 12:46:00,51.1,27.0,30.13,North,358,19.0,26.0,39,0.00,,,0.00,Wunderground v.1.15,2013-05-11 17:46:00,
2013-05-11 12:50:00,51.1,27.6,30.13,NNW,335,20.0,20.0,40,0.00,,,0.00,Wunderground v.1.15,2013-05-11 17:50:00,
2013-05-11 12:52:00,51.1,25.7,30.13,NNW,328,20.0,20.0,37,0.00,,,0.00,Wunderground v.1.15,2013-05-11 17:52:00,
2013-05-11 12:58:00,50.7,27.2,30.13,NNW,339,21.0,28.0,40,0.00,,,0.00,Wunderground v.1.15,2013-05-11 17:58:00,
2013-05-11 13:00:00,51.2,27.1,30.13,NNW,346,21.0,25.0,39,0.00,,,0.00,Wunderground v.1.15,2013-05-11 18:00:00,
2013-05-11 13:04:00,51.2,25.1,30.13,NNW,344,21.0,34.0,36,0.00,,,0.00,Wunderground v.1.15,2013-05-11 18:04:00,
2013-05-11 13:06:00,51.2,25.1,30.13,NNW,332,21.0,34.0,36,0.00,,,0.00,Wunderground v.1.15,2013-05-11 18:06:00,
2013-05-11 13:10:00,51.3,26.5,30.13,North,352,21.0,34.0,38,0.00,,,0.00,Wunderground v.1.15,2013-05-11 18:10:00,
2013-05-11 13:12:00,51.1,27.0,30.13,North,349,21.0,34.0,39,0.00,,,0.00,Wunderground v.1.15,2013-05-11 18:12:00,
2013-05-11 13:14:00,51.0,28.1,30.14,NNW,330,21.0,34.0,41,0.00,,,0.00,Wunderground v.1.15,2013-05-11 18:14:00,
2013-05-11 13:16:00,51.2,27.1,30.13,NNE,15,21.0,34.0,39,0.00,,,0.00,Wunderground v.1.15,2013-05-11 18:16:00,
2013-05-11 13:18:00,51.5,28.6,30.13,North,352,21.0,34.0,41,0.00,,,0.00,Wunderground v.1.15,2013-05-11 18:18:00,
2013-05-11 13:24:00,51.6,25.5,30.13,NNW,345,20.0,34.0,36,0.00,,,0.00,Wunderground v.1.15,2013-05-11 18:24:00,
2013-05-11 13:26:00,51.5,26.1,30.13,NNW,338,20.0,34.0,37,0.00,,,0.00,Wunderground v.1.15,2013-05-11 18:26:00,
2013-05-11 13:30:00,51.6,25.5,30.13,NNW,333,21.0,21.0,36,0.00,,,0.00,Wunderground v.1.15,2013-05-11 18:30:00,
2013-05-11 13:32:00,51.7,26.2,30.13,North,3,20.0,24.0,37,0.00,,,0.00,Wunderground v.1.15,2013-05-11 18:32:00,
2013-05-11 13:36:00,51.7,24.9,30.13,NNW,339,20.0,34.0,35,0.00,,,0.00,Wunderground v.1.15,2013-05-11 18:36:00,
2013-05-11 13:40:00,51.9,25.1,30.13,NNW,330,21.0,34.0,35,0.00,,,0.00,Wunderground v.1.15,2013-05-11 18:40:00,
2013-05-11 13:42:00,52.2,23.9,30.13,NNE,15,21.0,34.0,33,0.00,,,0.00,Wunderground v.1.15,2013-05-11 18:42:00,
2013-05-11 13:44:00,52.2,26.0,30.13,NNW,342,21.0,34.0,36,0.00,,,0.00,Wunderground v.1.15,2013-05-11 18:44:00,
2013-05-11 13:48:00,51.7,24.9,30.13,North,349,21.0,34.0,35,0.00,,,0.00,Wunderground v.1.15,2013-05-11 18:48:00,
2013-05-11 13:50:00,51.6,24.8,30.13,North,354,21.0,21.0,35,0.00,,,0.00,Wunderground v.1.15,2013-05-11 18:50:00,
2013-05-11 13:56:00,52.3,26.1,30.13,NNW,330,21.0,34.0,36,0.00,,,0.00,Wunderground v.1.15,2013-05-11 18:56:00,
2013-05-11 13:58:00,52.4,25.5,30.13,NW,323,21.0,34.0,35,0.00,,,0.00,Wunderground v.1.15,2013-05-11 18:58:00,
2013-05-11 14:02:00,52.1,23.8,30.13,NNW,342,21.0,34.0,33,0.00,,,0.00,Wunderground v.1.15,2013-05-11 19:02:00,
2013-05-11 14:04:00,52.1,23.1,30.13,NNW,337,21.0,34.0,32,0.00,,,0.00,Wunderground v.1.15,2013-05-11 19:04:00,
2013-05-11 14:06:00,52.2,23.2,30.13,North,11,21.0,34.0,32,0.00,,,0.00,Wunderground v.1.15,2013-05-11 19:06:00,
2013-05-11 14:08:00,52.1,24.6,30.13,NW,321,22.0,34.0,34,0.00,,,0.00,Wunderground v.1.15,2013-05-11 19:08:00,
2013-05-11 14:10:00,52.3,25.4,30.13,North,4,22.0,22.0,35,0.00,,,0.00,Wunderground v.1.15,2013-05-11 19:10:00,
2013-05-11 14:12:00,52.5,24.2,30.13,NNE,13,22.0,34.0,33,0.00,,,0.00,Wunderground v.1.15,2013-05-11 19:12:00,
2013-05-11 14:14:00,52.3,23.3,30.13,NNE,18,23.0,34.0,32,0.00,,,0.00,Wunderground v.1.15,2013-05-11 19:14:00,
2013-05-11 14:18:00,52.1,24.6,30.13,NNW,343,23.0,34.0,34,0.00,,,0.00,Wunderground v.1.15,2013-05-11 19:18:00,
2013-05-11 14:20:00,52.5,25.6,30.13,NW,317,22.0,22.0,35,0.00,,,0.00,Wunderground v.1.15,2013-05-11 19:20:00,
2013-05-11 14:22:00,52.9,26.0,30.13,NW,323,22.0,25.0,35,0.00,,,0.00,Wunderground v.1.15,2013-05-11 19:22:00,
2013-05-11 14:24:00,52.5,24.2,30.13,NNW,333,21.0,34.0,33,0.00,,,0.00,Wunderground v.1.15,2013-05-11 19:24:00,
2013-05-11 14:26:00,52.8,23.7,30.13,North,349,21.0,34.0,32,0.00,,,0.00,Wunderground v.1.15,2013-05-11 19:26:00,
2013-05-11 14:28:00,52.8,23.0,30.13,North,11,21.0,34.0,31,0.00,,,0.00,Wunderground v.1.15,2013-05-11 19:28:00,
2013-05-11 14:30:00,52.6,24.3,30.13,NW,319,21.0,34.0,33,0.00,,,0.00,Wunderground v.1.15,2013-05-11 19:30:00,
2013-05-11 14:34:00,52.5,24.2,30.13,NNW,348,21.0,34.0,33,0.00,,,0.00,Wunderground v.1.15,2013-05-11 19:34:00,
2013-05-11 14:36:00,52.5,24.9,30.13,NW,322,20.0,34.0,34,0.00,,,0.00,Wunderground v.1.15,2013-05-11 19:36:00,
2013-05-11 14:38:00,52.5,24.9,30.13,WNW,293,21.0,34.0,34,0.00,,,0.00,Wunderground v.1.15,2013-05-11 19:38:00,
2013-05-11 14:40:00,52.5,23.5,30.13,NW,319,22.0,22.0,32,0.00,,,0.00,Wunderground v.1.15,2013-05-11 19:40:00,
2013-05-11 14:42:00,52.8,23.7,30.13,NNW,337,21.0,24.0,32,0.00,,,0.00,Wunderground v.1.15,2013-05-11 19:42:00,
2013-05-11 14:46:00,52.7,23.6,30.13,NNW,347,22.0,34.0,32,0.00,,,0.00,Wunderground v.1.15,2013-05-11 19:46:00,
2013-05-11 14:50:00,52.8,23.7,30.12,NNW,332,21.0,21.0,32,0.00,,,0.00,Wunderground v.1.15,2013-05-11 19:50:00,
2013-05-11 14:52:00,53.1,24.7,30.12,NNW,338,21.0,27.0,33,0.00,,,0.00,Wunderground v.1.15,2013-05-11 19:52:00,
2013-05-11 14:54:00,53.2,23.3,30.12,NNW,328,21.0,34.0,31,0.00,,,0.00,Wunderground v.1.15,2013-05-11 19:54:00,
2013-05-11 14:56:00,53.1,23.2,30.12,NNE,18,20.0,34.0,31,0.00,,,0.00,Wunderground v.1.15,2013-05-11 19:56:00,
2013-05-11 15:02:00,53.1,24.7,30.12,NNW,330,21.0,34.0,33,0.00,,,0.00,Wunderground v.1.15,2013-05-11 20:02:00,
2013-05-11 15:06:00,53.7,24.5,30.12,NW,319,20.0,34.0,32,0.00,,,0.00,Wunderground v.1.15,2013-05-11 20:06:00,
2013-05-11 15:08:00,53.7,26.0,30.12,NNW,340,19.0,34.0,34,0.00,,,0.00,Wunderground v.1.15,2013-05-11 20:08:00,
2013-05-11 15:10:00,53.7,24.5,30.12,North,352,19.0,34.0,32,0.00,,,0.00,Wunderground v.1.15,2013-05-11 20:10:00,
2013-05-11 15:12:00,53.3,23.4,30.12,NW,323,19.0,34.0,31,0.00,,,0.00,Wunderground v.1.15,2013-05-11 20:12:00,
2013-05-11 15:16:00,53.3,24.2,30.12,North,357,20.0,34.0,32,0.00,,,0.00,Wunderground v.1.15,2013-05-11 20:16:00,
2013-05-11 15:18:00,53.3,24.2,30.12,NNE,29,20.0,34.0,32,0.00,,,0.00,Wunderground v.1.15,2013-05-11 20:18:00,
2013-05-11 15:24:00,53.4,23.5,30.12,NW,321,20.0,34.0,31,0.00,,,0.00,Wunderground v.1.15,2013-05-11 20:24:00,
2013-05-11 15:26:00,53.3,24.2,30.12,North,360,20.0,34.0,32,0.00,,,0.00,Wunderground v.1.15,2013-05-11 20:26:00,
2013-05-11 15:28:00,53.4,25.0,30.12,North,1,20.0,34.0,33,0.00,,,0.00,Wunderground v.1.15,2013-05-11 20:28:00,
2013-05-11 15:32:00,53.7,26.0,30.12,WNW,292,20.0,34.0,34,0.00,,,0.00,Wunderground v.1.15,2013-05-11 20:32:00,
2013-05-11 15:34:00,53.8,24.6,30.12,NNW,338,20.0,34.0,32,0.00,,,0.00,Wunderground v.1.15,2013-05-11 20:34:00,
2013-05-11 15:36:00,53.5,23.6,30.12,NNW,328,19.0,34.0,31,0.00,,,0.00,Wunderground v.1.15,2013-05-11 20:36:00,
2013-05-11 15:40:00,53.9,23.9,30.12,North,355,19.0,34.0,31,0.00,,,0.00,Wunderground v.1.15,2013-05-11 20:40:00,
2013-05-11 15:42:00,53.6,24.4,30.12,NNW,327,19.0,34.0,32,0.00,,,0.00,Wunderground v.1.15,2013-05-11 20:42:00,
2013-05-11 15:44:00,53.6,24.4,30.12,NNW,335,18.0,34.0,32,0.00,,,0.00,Wunderground v.1.15,2013-05-11 20:44:00,
2013-05-11 15:48:00,54.1,24.1,30.12,NNW,335,19.0,34.0,31,0.00,,,0.00,Wunderground v.1.15,2013-05-11 20:48:00,
2013-05-11 15:50:00,53.8,21.4,30.12,NNW,333,19.0,34.0,28,0.00,,,0.00,Wunderground v.1.15,2013-05-11 20:50:00,
2013-05-11 15:52:00,53.7,23.7,30.12,North,359,19.0,34.0,31,0.00,,,0.00,Wunderground v.1.15,2013-05-11 20:52:00,
2013-05-11 15:54:00,53.6,22.9,30.12,NNE,15,20.0,34.0,30,0.00,,,0.00,Wunderground v.1.15,2013-05-11 20:54:00,
2013-05-11 15:56:00,53.6,23.7,30.12,NW,314,21.0,34.0,31,0.00,,,0.00,Wunderground v.1.15,2013-05-11 20:56:00,
2013-05-11 15:58:00,53.6,23.7,30.12,NNE,18,20.0,34.0,31,0.00,,,0.00,Wunderground v.1.15,2013-05-11 20:58:00,
2013-05-11 16:04:00,54.0,24.8,30.12,NW,325,18.0,34.0,32,0.00,,,0.00,Wunderground v.1.15,2013-05-11 21:04:00,
2013-05-11 16:06:00,54.3,25.0,30.12,NNW,330,17.0,34.0,32,0.00,,,0.00,Wunderground v.1.15,2013-05-11 21:06:00,
2013-05-11 16:08:00,54.6,25.3,30.12,NW,318,17.0,34.0,32,0.00,,,0.00,Wunderground v.1.15,2013-05-11 21:08:00,
2013-05-11 16:10:00,54.5,24.4,30.12,NNE,16,18.0,18.0,31,0.00,,,0.00,Wunderground v.1.15,2013-05-11 21:10:00,
2013-05-11 16:12:00,54.5,25.2,30.12,NNW,336,17.0,34.0,32,0.00,,,0.00,Wunderground v.1.15,2013-05-11 21:12:00,
2013-05-11 16:14:00,54.4,21.9,30.11,NNW,330,17.0,34.0,28,0.00,,,0.00,Wunderground v.1.15,2013-05-11 21:14:00,
2013-05-11 16:18:00,54.2,22.6,30.11,North,349,19.0,34.0,29,0.00,,,0.00,Wunderground v.1.15,2013-05-11 21:18:00,
2013-05-11 16:20:00,54.1,22.5,30.11,NNW,341,18.0,18.0,29,0.00,,,0.00,Wunderground v.1.15,2013-05-11 21:20:00,
2013-05-11 16:22:00,54.1,23.3,30.11,NNW,340,18.0,26.0,30,0.00,,,0.00,Wunderground v.1.15,2013-05-11 21:22:00,
2013-05-11 16:24:00,54.0,23.2,30.11,NNW,340,18.0,34.0,30,0.00,,,0.00,Wunderground v.1.15,2013-05-11 21:24:00,
2013-05-11 16:28:00,53.4,22.7,30.11,NNW,328,20.0,34.0,30,0.00,,,0.00,Wunderground v.1.15,2013-05-11 21:28:00,
2013-05-11 16:30:00,53.3,21.8,30.11,NNW,335,21.0,34.0,29,0.00,,,0.00,Wunderground v.1.15,2013-05-11 21:30:00,
2013-05-11 16:34:00,53.6,22.1,30.11,NNW,337,22.0,34.0,29,0.00,,,0.00,Wunderground v.1.15,2013-05-11 21:34:00,
2013-05-11 16:36:00,53.9,23.1,30.11,NW,316,21.0,34.0,30,0.00,,,0.00,Wunderground v.1.15,2013-05-11 21:36:00,
2013-05-11 16:40:00,53.9,21.5,30.11,NNW,335,19.0,19.0,28,0.00,,,0.00,Wunderground v.1.15,2013-05-11 21:40:00,
2013-05-11 16:42:00,53.8,21.4,30.11,NNW,347,19.0,34.0,28,0.00,,,0.00,Wunderground v.1.15,2013-05-11 21:42:00,
2013-05-11 16:44:00,53.8,21.4,30.11,NNW,348,18.0,34.0,28,0.00,,,0.00,Wunderground v.1.15,2013-05-11 21:44:00,
2013-05-11 16:46:00,53.8,22.2,30.11,North,359,19.0,34.0,29,0.00,,,0.00,Wunderground v.1.15,2013-05-11 21:46:00,
2013-05-11 16:48:00,53.7,23.0,30.11,North,357,20.0,34.0,30,0.00,,,0.00,Wunderground v.1.15,2013-05-11 21:48:00,
2013-05-11 16:54:00,53.5,22.0,30.11,NW,317,20.0,34.0,29,0.00,,,0.00,Wunderground v.1.15,2013-05-11 21:54:00,
2013-05-11 16:56:00,53.4,22.7,30.11,North,9,20.0,34.0,30,0.00,,,0.00,Wunderground v.1.15,2013-05-11 21:56:00,
2013-05-11 17:02:00,53.7,22.2,30.11,NNW,332,18.0,34.0,29,0.00,,,0.00,Wunderground v.1.15,2013-05-11 22:02:00,
2013-05-11 17:04:00,53.6,21.2,30.11,North,350,18.0,34.0,28,0.00,,,0.00,Wunderground v.1.15,2013-05-11 22:04:00,
2013-05-11 17:06:00,53.6,22.1,30.11,North,349,18.0,34.0,29,0.00,,,0.00,Wunderground v.1.15,2013-05-11 22:06:00,
2013-05-11 17:08:00,53.6,21.2,30.11,NNW,330,18.0,34.0,28,0.00,,,0.00,Wunderground v.1.15,2013-05-11 22:08:00,
2013-05-11 17:10:00,53.6,21.2,30.11,NNE,27,18.0,18.0,28,0.00,,,0.00,Wunderground v.1.15,2013-05-11 22:10:00,
2013-05-11 17:12:00,53.7,23.0,30.12,NNW,347,19.0,19.0,30,0.00,,,0.00,Wunderground v.1.15,2013-05-11 22:12:00,
2013-05-11 17:18:00,53.4,22.7,30.11,NNW,330,19.0,34.0,30,0.00,,,0.00,Wunderground v.1.15,2013-05-11 22:18:00,
2013-05-11 17:22:00,53.3,21.8,30.11,NW,318,20.0,34.0,29,0.00,,,0.00,Wunderground v.1.15,2013-05-11 22:22:00,
2013-05-11 17:24:00,53.1,21.6,30.11,North,8,20.0,34.0,29,0.00,,,0.00,Wunderground v.1.15,2013-05-11 22:24:00,
2013-05-11 17:26:00,53.1,21.6,30.11,North,8,20.0,34.0,29,0.00,,,0.00,Wunderground v.1.15,2013-05-11 22:26:00,
2013-05-11 17:32:00,53.2,21.7,30.11,NNW,330,20.0,34.0,29,0.00,,,0.00,Wunderground v.1.15,2013-05-11 22:32:00,
2013-05-11 17:38:00,53.0,20.7,30.11,NNW,341,19.0,34.0,28,0.00,,,0.00,Wunderground v.1.15,2013-05-11 22:38:00,
2013-05-11 17:40:00,53.0,21.6,30.11,NNE,18,18.0,34.0,29,0.00,,,0.00,Wunderground v.1.15,2013-05-11 22:40:00,
2013-05-11 17:42:00,53.0,21.6,30.12,North,357,18.0,34.0,29,0.00,,,0.00,Wunderground v.1.15,2013-05-11 22:42:00,
2013-05-11 17:46:00,53.3,21.0,30.12,NW,316,18.0,34.0,28,0.00,,,0.00,Wunderground v.1.15,2013-05-11 22:46:00,
2013-05-11 17:48:00,53.3,21.0,30.12,NNW,330,18.0,34.0,28,0.00,,,0.00,Wunderground v.1.15,2013-05-11 22:48:00,
2013-05-11 17:50:00,53.3,21.0,30.11,NNW,341,18.0,34.0,28,0.00,,,0.00,Wunderground v.1.15,2013-05-11 22:50:00,
2013-05-11 17:54:00,53.0,20.7,30.12,North,355,18.0,34.0,28,0.00,,,0.00,Wunderground v.1.15,2013-05-11 22:54:00,
2013-05-11 17:56:00,52.9,21.5,30.12,North,356,18.0,34.0,29,0.00,,,0.00,Wunderground v.1.15,2013-05-11 22:56:00,
2013-05-11 18:02:00,52.9,22.3,30.12,NNE,15,16.0,21.0,30,0.00,,,0.00,Wunderground v.1.15,2013-05-11 23:02:00,
2013-05-11 18:04:00,53.0,21.6,30.12,NNW,330,16.0,34.0,29,0.00,,,0.00,Wunderground v.1.15,2013-05-11 23:04:00,
2013-05-11 18:06:00,53.2,21.7,30.12,NNW,327,15.0,34.0,29,0.00,,,0.00,Wunderground v.1.15,2013-05-11 23:06:00,
2013-05-11 18:08:00,53.2,22.5,30.12,North,349,15.0,34.0,30,0.00,,,0.00,Wunderground v.1.15,2013-05-11 23:08:00,
2013-05-11 18:14:00,52.6,20.4,30.11,NNE,20,18.0,34.0,28,0.00,,,0.00,Wunderground v.1.15,2013-05-11 23:14:00,
2013-05-11 18:18:00,52.5,21.1,30.11,NW,316,18.0,34.0,29,0.00,,,0.00,Wunderground v.1.15,2013-05-11 23:18:00,
2013-05-11 18:20:00,52.5,21.1,30.11,NW,314,18.0,34.0,29,0.00,,,0.00,Wunderground v.1.15,2013-05-11 23:20:00,
2013-05-11 18:24:00,52.3,22.5,30.12,North,10,18.0,34.0,31,0.00,,,0.00,Wunderground v.1.15,2013-05-11 23:24:00,
2013-05-11 18:26:00,52.1,21.6,30.12,North,360,19.0,34.0,30,0.00,,,0.00,Wunderground v.1.15,2013-05-11 23:26:00,
2013-05-11 18:28:00,52.2,22.4,30.12,North,349,18.0,34.0,31,0.00,,,0.00,Wunderground v.1.15,2013-05-11 23:28:00,
2013-05-11 18:32:00,52.2,22.4,30.11,North,359,18.0,19.0,31,0.00,,,0.00,Wunderground v.1.15,2013-05-11 23:32:00,
2013-05-11 18:34:00,52.2,22.4,30.12,NNW,335,17.0,34.0,31,0.00,,,0.00,Wunderground v.1.15,2013-05-11 23:34:00,
2013-05-11 18:36:00,52.3,21.7,30.11,North,359,15.0,34.0,30,0.00,,,0.00,Wunderground v.1.15,2013-05-11 23:36:00,
2013-05-11 18:42:00,52.1,22.3,30.11,NNW,347,16.0,34.0,31,0.00,,,0.00,Wunderground v.1.15,2013-05-11 23:42:00,
2013-05-11 18:44:00,52.0,21.5,30.12,NW,321,17.0,34.0,30,0.00,,,0.00,Wunderground v.1.15,2013-05-11 23:44:00,
2013-05-11 18:48:00,51.8,21.3,30.11,North,1,17.0,34.0,30,0.00,,,0.00,Wunderground v.1.15,2013-05-11 23:48:00,
2013-05-11 18:50:00,51.8,22.1,30.12,NNW,338,17.0,17.0,31,0.00,,,0.00,Wunderground v.1.15,2013-05-11 23:50:00,
2013-05-11 18:52:00,51.9,22.2,30.12,NNW,338,16.0,34.0,31,0.00,,,0.00,Wunderground v.1.15,2013-05-11 23:52:00,
2013-05-11 18:54:00,51.9,21.4,30.11,NNW,344,16.0,34.0,30,0.00,,,0.00,Wunderground v.1.15,2013-05-11 23:54:00,
2013-05-11 18:58:00,51.6,21.1,30.12,NW,310,16.0,34.0,30,0.00,,,0.00,Wunderground v.1.15,2013-05-11 23:58:00,
2013-05-11 19:02:00,51.4,21.0,30.12,NNW,330,17.0,17.0,30,0.00,,,0.00,Wunderground v.1.15,2013-05-12 00:02:00,
2013-05-11 19:04:00,51.4,21.7,30.12,North,356,16.0,34.0,31,0.00,,,0.00,Wunderground v.1.15,2013-05-12 00:04:00,
2013-05-11 19:08:00,51.3,20.9,30.12,NNW,342,15.0,34.0,30,0.00,,,0.00,Wunderground v.1.15,2013-05-12 00:08:00,
2013-05-11 19:10:00,51.2,21.6,30.12,NNW,333,15.0,15.0,31,0.00,,,0.00,Wunderground v.1.15,2013-05-12 00:10:00,
2013-05-11 19:12:00,51.2,20.8,30.12,NNW,346,15.0,19.0,30,0.00,,,0.00,Wunderground v.1.15,2013-05-12 00:12:00,
2013-05-11 19:14:00,51.2,20.8,30.12,NNW,341,15.0,34.0,30,0.00,,,0.00,Wunderground v.1.15,2013-05-12 00:14:00,
2013-05-11 19:18:00,51.0,19.8,30.12,NNW,331,16.0,34.0,29,0.00,,,0.00,Wunderground v.1.15,2013-05-12 00:18:00,
2013-05-11 19:22:00,50.8,20.4,30.12,NNW,347,15.0,34.0,30,0.00,,,0.00,Wunderground v.1.15,2013-05-12 00:22:00,
2013-05-11 19:24:00,50.9,21.3,30.12,NNW,327,14.0,34.0,31,0.00,,,0.00,Wunderground v.1.15,2013-05-12 00:24:00,
2013-05-11 19:28:00,50.9,20.5,30.12,NNW,345,12.0,34.0,30,0.00,,,0.00,Wunderground v.1.15,2013-05-12 00:28:00,
2013-05-11 19:30:00,50.7,20.4,30.12,North,349,13.0,13.0,30,0.00,,,0.00,Wunderground v.1.15,2013-05-12 00:30:00,
2013-05-11 19:34:00,50.6,21.0,30.12,North,11,15.0,16.0,31,0.00,,,0.00,Wunderground v.1.15,2013-05-12 00:34:00,
2013-05-11 19:40:00,50.4,20.1,30.12,NNW,331,16.0,16.0,30,0.00,,,0.00,Wunderground v.1.15,2013-05-12 00:40:00,
2013-05-11 19:42:00,50.3,20.0,30.12,North,352,16.0,34.0,30,0.00,,,0.00,Wunderground v.1.15,2013-05-12 00:42:00,
2013-05-11 19:48:00,50.1,20.6,30.12,NNW,339,14.0,34.0,31,0.00,,,0.00,Wunderground v.1.15,2013-05-12 00:48:00,
2013-05-11 19:50:00,50.0,20.5,30.12,NNW,328,13.0,34.0,31,0.00,,,0.00,Wunderground v.1.15,2013-05-12 00:50:00,
2013-05-11 19:52:00,49.9,21.2,30.12,NW,325,13.0,34.0,32,0.00,,,0.00,Wunderground v.1.15,2013-05-12 00:52:00,
2013-05-11 19:54:00,49.8,21.1,30.12,NNW,340,12.0,34.0,32,0.00,,,0.00,Wunderground v.1.15,2013-05-12 00:54:00,
2013-05-11 19:58:00,49.6,20.9,30.12,NNE,15,12.0,34.0,32,0.00,,,0.00,Wunderground v.1.15,2013-05-12 00:58:00,
2013-05-11 20:00:00,49.5,21.5,30.12,NNW,344,12.0,12.0,33,0.00,,,0.00,Wunderground v.1.15,2013-05-12 01:00:00,
2013-05-11 20:06:00,49.1,21.2,30.12,NNW,338,12.0,34.0,33,0.00,,,0.00,Wunderground v.1.15,2013-05-12 01:06:00,
2013-05-11 20:08:00,48.9,21.7,30.12,North,8,12.0,34.0,34,0.00,,,0.00,Wunderground v.1.15,2013-05-12 01:08:00,
2013-05-11 20:10:00,48.7,21.5,30.12,NNW,330,12.0,12.0,34,0.00,,,0.00,Wunderground v.1.15,2013-05-12 01:10:00,
2013-05-11 20:12:00,48.4,21.3,30.12,NW,323,12.0,34.0,34,0.00,,,0.00,Wunderground v.1.15,2013-05-12 01:12:00,
2013-05-11 20:16:00,48.1,21.0,30.12,NNW,342,11.0,34.0,34,0.00,,,0.00,Wunderground v.1.15,2013-05-12 01:16:00,
2013-05-11 20:18:00,48.0,20.9,30.12,North,352,11.0,34.0,34,0.00,,,0.00,Wunderground v.1.15,2013-05-12 01:18:00,
2013-05-11 20:22:00,47.7,20.7,30.12,NNW,338,11.0,34.0,34,0.00,,,0.00,Wunderground v.1.15,2013-05-12 01:22:00,
2013-05-11 20:24:00,47.6,20.6,30.12,North,349,11.0,34.0,34,0.00,,,0.00,Wunderground v.1.15,2013-05-12 01:24:00,
2013-05-11 20:26:00,47.6,20.6,30.12,NNW,327,11.0,34.0,34,0.00,,,0.00,Wunderground v.1.15,2013-05-12 01:26:00,
2013-05-11 20:30:00,47.3,21.0,30.13,NW,323,9.0,9.0,35,0.00,,,0.00,Wunderground v.1.15,2013-05-12 01:30:00,
2013-05-11 20:32:00,47.0,21.4,30.13,NNW,337,9.0,34.0,36,0.00,,,0.00,Wunderground v.1.15,2013-05-12 01:32:00,
2013-05-11 20:38:00,46.6,21.0,30.13,NNW,337,8.0,34.0,36,0.00,,,0.00,Wunderground v.1.15,2013-05-12 01:38:00,
2013-05-11 20:42:00,46.2,22.0,30.13,NNW,328,8.0,34.0,38,0.00,,,0.00,Wunderground v.1.15,2013-05-12 01:42:00,
2013-05-11 20:44:00,45.9,22.3,30.13,NNE,16,7.0,34.0,39,0.00,,,0.00,Wunderground v.1.15,2013-05-12 01:44:00,
2013-05-11 20:48:00,45.5,21.9,30.13,NNW,342,6.0,34.0,39,0.00,,,0.00,Wunderground v.1.15,2013-05-12 01:48:00,
2013-05-11 20:52:00,45.3,22.4,30.13,NNW,337,7.0,34.0,40,0.00,,,0.00,Wunderground v.1.15,2013-05-12 01:52:00,
2013-05-11 20:54:00,45.3,21.8,30.13,NNW,332,7.0,34.0,39,0.00,,,0.00,Wunderground v.1.15,2013-05-12 01:54:00,
2013-05-11 20:58:00,45.1,22.2,30.13,NNW,340,7.0,34.0,40,0.00,,,0.00,Wunderground v.1.15,2013-05-12 01:58:00,
2013-05-11 21:00:00,44.9,22.0,30.13,NNW,337,7.0,7.0,40,0.00,,,0.00,Wunderground v.1.15,2013-05-12 02:00:00,
2013-05-11 21:04:00,44.7,22.4,30.13,NNW,342,6.0,34.0,41,0.00,,,0.00,Wunderground v.1.15,2013-05-12 02:04:00,
2013-05-11 21:06:00,44.5,22.2,30.13,NNW,332,6.0,34.0,41,0.00,,,0.00,Wunderground v.1.15,2013-05-12 02:06:00,
2013-05-11 21:08:00,44.4,22.1,30.14,NNW,336,6.0,34.0,41,0.00,,,0.00,Wunderground v.1.15,2013-05-12 02:08:00,
2013-05-11 21:12:00,44.2,22.0,30.14,NNW,343,6.0,34.0,41,0.00,,,0.00,Wunderground v.1.15,2013-05-12 02:12:00,
2013-05-11 21:14:00,44.2,22.5,30.14,NNW,335,7.0,34.0,42,0.00,,,0.00,Wunderground v.1.15,2013-05-12 02:14:00,
2013-05-11 21:16:00,44.1,22.4,30.14,NNW,334,7.0,34.0,42,0.00,,,0.00,Wunderground v.1.15,2013-05-12 02:16:00,
2013-05-11 21:20:00,43.8,22.7,30.14,NNW,338,7.0,34.0,43,0.00,,,0.00,Wunderground v.1.15,2013-05-12 02:20:00,
2013-05-11 21:22:00,43.7,22.6,30.14,NNW,340,6.0,34.0,43,0.00,,,0.00,Wunderground v.1.15,2013-05-12 02:22:00,
2013-05-11 21:26:00,43.5,22.5,30.14,NW,325,6.0,34.0,43,0.00,,,0.00,Wunderground v.1.15,2013-05-12 02:26:00,
2013-05-11 21:28:00,43.4,22.4,30.14,NNW,330,6.0,34.0,43,0.00,,,0.00,Wunderground v.1.15,2013-05-12 02:28:00,
2013-05-11 21:30:00,43.4,22.4,30.14,NNW,337,6.0,34.0,43,0.00,,,0.00,Wunderground v.1.15,2013-05-12 02:30:00,
2013-05-11 21:32:00,43.3,22.8,30.14,NNW,335,6.0,34.0,44,0.00,,,0.00,Wunderground v.1.15,2013-05-12 02:32:00,
2013-05-11 21:34:00,43.3,22.8,30.14,NNW,342,6.0,34.0,44,0.00,,,0.00,Wunderground v.1.15,2013-05-12 02:34:00,
2013-05-11 21:36:00,43.3,22.8,30.14,NNW,343,6.0,34.0,44,0.00,,,0.00,Wunderground v.1.15,2013-05-12 02:36:00,
2013-05-11 21:38:00,43.2,22.7,30.14,NNW,334,6.0,34.0,44,0.00,,,0.00,Wunderground v.1.15,2013-05-12 02:38:00,
2013-05-11 21:40:00,43.2,23.3,30.14,NNW,340,6.0,34.0,45,0.00,,,0.00,Wunderground v.1.15,2013-05-12 02:40:00,
2013-05-11 21:44:00,43.0,23.6,30.14,NNW,347,5.0,34.0,46,0.00,,,0.00,Wunderground v.1.15,2013-05-12 02:44:00,
2013-05-11 21:46:00,42.9,23.5,30.15,NNW,338,5.0,34.0,46,0.00,,,0.00,Wunderground v.1.15,2013-05-12 02:46:00,
2013-05-11 21:48:00,42.8,23.4,30.15,NNW,343,5.0,34.0,46,0.00,,,0.00,Wunderground v.1.15,2013-05-12 02:48:00,
2013-05-11 21:50:00,42.7,23.3,30.15,North,349,5.0,5.0,46,0.00,,,0.00,Wunderground v.1.15,2013-05-12 02:50:00,
2013-05-11 21:52:00,42.5,23.2,30.15,North,352,5.0,34.0,46,0.00,,,0.00,Wunderground v.1.15,2013-05-12 02:52:00,
2013-05-11 21:54:00,42.4,23.1,30.15,NNW,338,4.0,34.0,46,0.00,,,0.00,Wunderground v.1.15,2013-05-12 02:54:00,
2013-05-11 21:56:00,42.3,23.0,30.15,NNW,348,4.0,34.0,46,0.00,,,0.00,Wunderground v.1.15,2013-05-12 02:56:00,
2013-05-11 21:58:00,42.2,22.9,30.15,NNW,347,4.0,34.0,46,0.00,,,0.00,Wunderground v.1.15,2013-05-12 02:58:00,
2013-05-11 22:04:00,42.2,23.9,30.15,North,349,5.0,34.0,48,0.00,,,0.00,Wunderground v.1.15,2013-05-12 03:04:00,
2013-05-11 22:06:00,42.2,23.9,30.15,NNW,334,5.0,34.0,48,0.00,,,0.00,Wunderground v.1.15,2013-05-12 03:06:00,
2013-05-11 22:10:00,42.2,23.9,30.15,North,3,5.0,34.0,48,0.00,,,0.00,Wunderground v.1.15,2013-05-12 03:10:00,
2013-05-11 22:12:00,42.2,23.4,30.15,North,354,5.0,34.0,47,0.00,,,0.00,Wunderground v.1.15,2013-05-12 03:12:00,
2013-05-11 22:14:00,42.0,23.7,30.15,NNW,348,5.0,34.0,48,0.00,,,0.00,Wunderground v.1.15,2013-05-12 03:14:00,
2013-05-11 22:16:00,42.0,23.7,30.15,NNW,348,5.0,34.0,48,0.00,,,0.00,Wunderground v.1.15,2013-05-12 03:16:00,
2013-05-11 22:18:00,41.9,23.6,30.15,NNW,344,5.0,34.0,48,0.00,,,0.00,Wunderground v.1.15,2013-05-12 03:18:00,
2013-05-11 22:22:00,41.8,23.5,30.15,NNW,337,5.0,34.0,48,0.00,,,0.00,Wunderground v.1.15,2013-05-12 03:22:00,
2013-05-11 22:24:00,41.7,23.4,30.15,NNW,333,5.0,34.0,48,0.00,,,0.00,Wunderground v.1.15,2013-05-12 03:24:00,
2013-05-11 22:26:00,41.5,23.2,30.15,NNW,335,5.0,34.0,48,0.00,,,0.00,Wunderground v.1.15,2013-05-12 03:26:00,
2013-05-11 22:30:00,40.7,23.5,30.15,NW,317,4.0,4.0,50,0.00,,,0.00,Wunderground v.1.15,2013-05-12 03:30:00,
2013-05-11 22:32:00,40.1,23.4,30.15,NW,318,4.0,34.0,51,0.00,,,0.00,Wunderground v.1.15,2013-05-12 03:32:00,
2013-05-11 22:34:00,39.5,22.8,30.15,NW,318,3.0,34.0,51,0.00,,,0.00,Wunderground v.1.15,2013-05-12 03:34:00,
2013-05-11 22:38:00,38.3,23.5,30.15,NW,315,3.0,34.0,55,0.00,,,0.00,Wunderground v.1.15,2013-05-12 03:38:00,
2013-05-11 22:40:00,37.8,23.5,30.16,NW,322,2.0,34.0,56,0.00,,,0.00,Wunderground v.1.15,2013-05-12 03:40:00,
2013-05-11 22:42:00,37.6,23.7,30.15,NNW,327,2.0,34.0,57,0.00,,,0.00,Wunderground v.1.15,2013-05-12 03:42:00,
2013-05-11 22:46:00,37.3,23.4,30.15,NNW,334,3.0,34.0,57,0.00,,,0.00,Wunderground v.1.15,2013-05-12 03:46:00,
2013-05-11 22:48:00,37.3,23.4,30.15,NNW,335,3.0,34.0,57,0.00,,,0.00,Wunderground v.1.15,2013-05-12 03:48:00,
2013-05-11 22:50:00,37.4,23.1,30.15,NW,322,3.0,3.0,56,0.00,,,0.00,Wunderground v.1.15,2013-05-12 03:50:00,
2013-05-11 22:54:00,37.8,23.5,30.15,NW,322,3.0,34.0,56,0.00,,,0.00,Wunderground v.1.15,2013-05-12 03:54:00,
2013-05-11 22:56:00,38.0,23.7,30.15,NNW,332,3.0,34.0,56,0.00,,,0.00,Wunderground v.1.15,2013-05-12 03:56:00,
2013-05-11 22:58:00,38.1,23.8,30.15,NW,320,3.0,34.0,56,0.00,,,0.00,Wunderground v.1.15,2013-05-12 03:58:00,
2013-05-11 23:02:00,38.1,23.8,30.15,North,350,4.0,34.0,56,0.00,,,0.00,Wunderground v.1.15,2013-05-12 04:02:00,
2013-05-11 23:06:00,38.1,23.8,30.15,NNW,338,4.0,34.0,56,0.00,,,0.00,Wunderground v.1.15,2013-05-12 04:06:00,
2013-05-11 23:08:00,38.2,23.4,30.15,North,350,4.0,34.0,55,0.00,,,0.00,Wunderground v.1.15,2013-05-12 04:08:00,
2013-05-11 23:14:00,38.2,23.4,30.15,NNW,348,3.0,34.0,55,0.00,,,0.00,Wunderground v.1.15,2013-05-12 04:14:00,
2013-05-11 23:16:00,38.2,23.4,30.15,North,357,3.0,34.0,55,0.00,,,0.00,Wunderground v.1.15,2013-05-12 04:16:00,
2013-05-11 23:18:00,38.2,23.4,30.16,North,354,3.0,34.0,55,0.00,,,0.00,Wunderground v.1.15,2013-05-12 04:18:00,
2013-05-11 23:22:00,38.2,23.4,30.16,North,355,3.0,34.0,55,0.00,,,0.00,Wunderground v.1.15,2013-05-12 04:22:00,
2013-05-11 23:24:00,38.1,23.3,30.16,NNW,333,2.0,34.0,55,0.00,,,0.00,Wunderground v.1.15,2013-05-12 04:24:00,
2013-05-11 23:28:00,37.5,23.2,30.16,NNW,330,2.0,34.0,56,0.00,,,0.00,Wunderground v.1.15,2013-05-12 04:28:00,
2013-05-11 23:30:00,37.2,23.4,30.16,NNW,338,2.0,34.0,57,0.00,,,0.00,Wunderground v.1.15,2013-05-12 04:30:00,
2013-05-11 23:36:00,36.3,23.3,30.16,NW,326,2.0,34.0,59,0.00,,,0.00,Wunderground v.1.15,2013-05-12 04:36:00,
2013-05-11 23:38:00,36.1,23.5,30.16,NW,321,2.0,34.0,60,0.00,,,0.00,Wunderground v.1.15,2013-05-12 04:38:00,
2013-05-11 23:40:00,35.8,23.7,30.16,NW,323,2.0,34.0,61,0.00,,,0.00,Wunderground v.1.15,2013-05-12 04:40:00,
2013-05-11 23:42:00,35.5,23.4,30.16,NW,325,2.0,34.0,61,0.00,,,0.00,Wunderground v.1.15,2013-05-12 04:42:00,
2013-05-11 23:44:00,35.2,23.5,30.16,NW,323,2.0,34.0,62,0.00,,,0.00,Wunderground v.1.15,2013-05-12 04:44:00,
2013-05-11 23:46:00,35.0,23.7,30.16,NW,318,2.0,34.0,63,0.00,,,0.00,Wunderground v.1.15,2013-05-12 04:46:00,
2013-05-11 23:48:00,35.0,23.7,30.16,NW,322,2.0,34.0,63,0.00,,,0.00,Wunderground v.1.15,2013-05-12 04:48:00,
2013-05-11 23:50:00,35.2,23.9,30.16,NW,316,3.0,3.0,63,0.00,,,0.00,Wunderground v.1.15,2013-05-12 04:50:00,
2013-05-11 23:52:00,35.1,23.8,30.16,NW,315,3.0,34.0,63,0.00,,,0.00,Wunderground v.1.15,2013-05-12 04:52:00,
2013-05-11 23:58:00,34.1,23.6,30.16,WNW,284,2.0,34.0,65,0.00,,,0.00,Wunderground v.1.15,2013-05-12 04:58:00,